NOAA 16 DEB, 41055

Orbit data source: Space-Track

NOAA 16 DEB, 41055 is space debris in SSO originally from a launch on Thu, 21 Sep 2000 UTC launched from the Air Force Western Test Range (AFWTR). Debris objects in space refer to the collection of defunct objects orbiting the Earth. Examples of debris include non-operational satellites, rocket bodies, and fragments generated from explosions, collisions, or faulty payload assembly.

Loading next visibility...
Identifier
41055, 2000-055N
Orbit
SSO
Country
Flag of USUS
Related business
Manufacturer
Unknown
Mission
Spacecraft
Bus & Motor
Unknown
Mass
Unknown
Launch date (UTC)
2000-09-21 (26 years ago)
Launch vehicle
Unknown
Launch site
Air Force Western Test Range (AFWTR)
Object type
Payload
Rocket body
Debris
Shape & HBR
Unknown shape, 0.2 m
Radar Cross Section
Medium (>0.1 m² and <1 m²)

Expand to show TLE details & history
Last TLE update: 12 hours ago

TLE from 12 hours ago
0 NOAA 16 DEB
1 41055U 00055N   26235.80731957  .00002810  00000-0  96860-3 0  9996
2 41055  98.7949 352.2365 0013192  10.6860 349.4603 14.36667990557294
Epoch: 2026-08-23T19:22Z
TLE epoch observation values (Epoch: 2026-08-23T19:22:32.410Z)
Latitude
-0.00007°
Longitude
89.50339°
Altitude
763.192 km
Speed
7.478 km/s
True Right ascension
23h 28m 56s
True Declination
0° 00' 00"
Sunlit
Object was in full shadow at epoch
Visualization orbit readout
Latitude
Unknown
Longitude
Unknown
Altitude
Unknown
Speed
Unknown
Apparent Right ascension
Unknown
Apparent Declination
Unknown
Sunlit
N/A
Visualization observer readout
Local Sidereal Time
22:45:55
Azimuth
Unknown
Elevation
Unknown
Doppler factor
Unknown
Orbital elements
Apogee altitude
776.095 km
Perigee altitude
757.244 km
Semi-major axis
7,144.806 km
Eccentricity
0.00132
Inclination
98.7949°
RAAN
352.2365°
Arg. of periapsis
10.686°
True anomaly
349.4326°
Mean anomaly
349.4603°
Eccentric anomaly
349.44646°
Mean motion
3.59383 °/min
Orbital period
100.17 mins
BSTAR
0.0009686
Loading maneuver chart data...
Computing Atmospheric mass density...
Loading historical data...
Loading historical data...
Loading historical data...
Loading historical data...
Loading historical data...
Loading historical data...
Loading historical data...

Documentation

Showing up to 5 results
|